Tacoma Narrows, WA
on Thursday, January 24, 2013

Thursday
Previous Day Next Day
Daily Summary
 ActualAverageRecord
Temperature
Mean Temperature °F °F  
Max Temperature 43°F 45°F 55°F (2002)
Min Temperature 37°F 37°F 28°F (2008)
Degree Days
Heating Degree Days 25    
Moisture
Dew Point 37°F   
Average Humidity 88    
Maximum Humidity 93    
Minimum Humidity 79    
Precipitation
Precipitation 0.18 in in in ()
Wind
Wind Speed 5 mph   
Max Wind Speed 14 mph   
Max Gust Speed mph   
Visibility 9 miles   
Events Rain   
Averages and records for this station are not official NWS values.
Key: T is trace of precipitation, MM is missing value
Source: NWS Daily Summary
Seasonal Weather Averages
Time(PST)TemperatureDew PointHumidity Pressure Visibility Wind DirectionWind SpeedGust SpeedPrecipitationEvents Conditions
12:53 AM 39.9°F 37.0°F 89% 30.17 in 10.0 miles South 13.8 mph - N/A   Clear
1:53 AM 39.9°F 36.0°F 86% 30.19 in 10.0 miles South 11.5 mph - N/A   Clear
2:53 AM 39.9°F 37.0°F 89% 30.20 in 10.0 miles South 10.4 mph - N/A   Clear
3:53 AM 39.9°F 36.0°F 86% 30.20 in 10.0 miles South 10.4 mph - N/A   Clear
4:53 AM 39.9°F 36.0°F 86% 30.20 in 10.0 miles South 6.9 mph - N/A   Clear
5:23 AM 39.2°F 35.6°F 87% 30.20 in 10.0 miles Calm Calm - N/A   Partly Cloudy
5:53 AM 39.9°F 35.1°F 83% 30.22 in 10.0 miles Calm Calm - N/A   Scattered Clouds
6:53 AM 37.0°F 34.0°F 89% 30.21 in 10.0 miles South 3.5 mph - N/A   Mostly Cloudy
7:53 AM 37.0°F 35.1°F 93% 30.21 in 10.0 miles Calm Calm - N/A   Mostly Cloudy
7:55 AM 37.4°F 35.6°F 93% 30.20 in 10.0 miles Calm Calm - N/A   Scattered Clouds
8:46 AM 37.4°F 35.6°F 93% 30.19 in 10.0 miles Calm Calm - N/A   Mostly Cloudy
8:48 AM 37.4°F 35.6°F 93% 30.19 in 10.0 miles Calm Calm - N/A   Scattered Clouds
8:53 AM 39.0°F 35.1°F 86% 30.20 in 10.0 miles Calm Calm - N/A   Scattered Clouds
9:53 AM 41.0°F 37.0°F 86% 30.19 in 10.0 miles Calm Calm - N/A   Partly Cloudy
10:53 AM 41.0°F 36.0°F 82% 30.18 in 10.0 miles Calm Calm - N/A   Partly Cloudy
11:53 AM 41.0°F 36.0°F 82% 30.16 in 10.0 miles Calm Calm - N/A   Partly Cloudy
12:53 PM 42.1°F 36.0°F 79% 30.13 in 10.0 miles Calm Calm - N/A   Mostly Cloudy
12:54 PM 42.1°F 36.0°F 79% 30.13 in 10.0 miles Calm Calm - N/A   Mostly Cloudy
1:53 PM 43.0°F 37.0°F 80% 30.11 in 10.0 miles Calm Calm - N/A   Overcast
2:53 PM 43.0°F 37.0°F 80% 30.09 in 10.0 miles Calm Calm - N/A   Overcast
3:53 PM 42.1°F 37.9°F 85% 30.09 in 10.0 miles NW 4.6 mph - N/A   Overcast
4:53 PM 41.0°F 37.9°F 89% 30.11 in 6.0 miles West 4.6 mph - 0.04 in Rain Light Rain
5:53 PM 39.9°F 37.9°F 93% 30.10 in 8.0 miles Calm Calm - 0.08 in Rain Light Rain
6:53 PM 41.0°F 39.0°F 93% 30.10 in 9.0 miles Calm Calm - 0.00 in Rain Light Rain
7:53 PM 42.1°F 39.0°F 89% 30.09 in 7.0 miles Calm Calm - 0.02 in Rain Light Rain
8:06 PM 42.8°F 39.2°F 87% 30.08 in 7.0 miles Calm Calm - 0.00 in Rain Light Rain
8:19 PM 41.0°F 39.2°F 93% 30.08 in 6.0 miles Calm Calm - 0.00 in Rain Light Rain
8:53 PM 41.0°F 39.0°F 93% 30.08 in 9.0 miles Calm Calm - 0.01 in Rain Light Rain
9:53 PM 41.0°F 39.0°F 93% 30.07 in 6.0 miles Calm Calm - 0.00 in Rain Light Rain
10:53 PM 41.0°F 39.0°F 93% 30.06 in 7.0 miles Calm Calm - 0.01 in   Overcast
11:53 PM 41.0°F 39.0°F 93% 30.06 in 5.0 miles Calm Calm - 0.02 in Rain Light Rain
Moon Phase
Jan. 24 Jan. 26 Feb. 03 Feb. 10 Feb. 17
Sunrise:07:44 AM (PST) Moon Rise:03:05 PM (PST)
Sunset:05:00 PM (PST) Moon Set:05:48 AM (PST)

Copyright © 2014 The Weather Underground, Inc.